User: anonymous   Login
Location: Unspecified
(0.0000°N, 0.0000°E)
Time: 17:18:08
(UTC+00:00)
Language:

Gonets-D1 - Orbit

View from above orbital plane
View from above orbital plane
View from above satellite
View from above satellite

Ground track
Ground track

The orbit data is extracted from the following two-line orbital elements,

1 23788U 96009B   18112.76579190 -.00000003 +00000-0 -73207-4 0  9997
2 23788 082.5724 049.4106 0006650 355.3740 004.7306 12.63140861022406
Epoch (UTC): 22 April 2018 18:22:44
Eccentricity: 0.0006650
inclination: 82.5724°
perigee height: 1405 km
apogee height: 1415 km
right ascension of ascending node: 49.4106°
argument of perigee: 355.3740°
revolutions per day: 12.63140861
mean anomaly at epoch: 4.7306°
orbit number at epoch: 2240

The dashed part of the orbit path shows where the satellite is in the earth's shadow,  

DLR